IW9GDC-13 Weather Reports


Display with metric or nautical units.
time (UTC)temp
F
wind
direction
speed
MPH
gust
MPH
rain 1hr
in
rain 24hr
in
rain mn
in
humidity
%
barometer
mb
20260510143517 70 68 2.0 4.0 0.00 0.13 0.13 56 1015.5
20260510143024 70 315 2.0 5.0 0.00 0.13 0.13 57 1015.4
20260510142536 70 45 3.0 5.0 0.00 0.13 0.13 60 1015.4
20260510142016 70 45 3.0 5.0 0.00 0.13 0.13 62 1015.5
20260510141534 70 68 4.0 7.0 0.00 0.13 0.13 63 1015.5
20260510141016 70 113 4.0 9.0 0.00 0.13 0.13 64 1015.5
20260510140016 69 113 8.0 13.0 0.00 0.13 0.13 68 1015.4
20260510135516 72 90 6.0 11.0 0.00 0.13 0.13 63 1015.2
20260510135016 73 113 7.0 11.0 0.00 0.13 0.13 58 1015.0
20260510134516 74 113 6.0 11.0 0.00 0.13 0.13 56 1015.1
20260510134017 76 135 6.0 10.0 0.00 0.13 0.13 53 1015.1
20260510133544 76 135 5.0 13.0 0.00 0.13 0.13 52 1015.3
20260510133021 76 158 6.0 11.0 0.00 0.13 0.13 52 1015.2
20260510132516 75 158 6.0 12.0 0.00 0.13 0.13 53 1015.2
20260510132029 74 113 6.0 11.0 0.00 0.13 0.13 53 1015.2
20260510131521 73 113 7.0 12.0 0.00 0.13 0.13 57 1015.3
20260510131016 75 135 7.0 12.0 0.00 0.13 0.13 54 1015.5
20260510130518 75 180 7.0 15.0 0.00 0.13 0.13 53 1015.5
20260510130022 74 135 7.0 12.0 0.00 0.13 0.13 54 1015.4
20260510125526 74 135 9.0 17.0 0.00 0.13 0.13 53 1015.5
20260510125016 74 158 7.0 12.0 0.00 0.13 0.13 54 1015.6
20260510124536 74 158 9.0 16.0 0.00 0.13 0.13 55 1015.6
20260510124016 74 135 9.0 15.0 0.00 0.13 0.13 55 1015.6
20260510123532 73 135 8.0 14.0 0.00 0.13 0.13 57 1015.7
20260510123016 73 135 7.0 15.0 0.00 0.13 0.13 57 1015.7
20260510122516 73 158 8.0 15.0 0.00 0.13 0.13 57 1015.8
20260510122026 72 135 8.0 17.0 0.00 0.13 0.13 58 1015.9
20260510121536 72 135 8.0 13.0 0.00 0.13 0.13 62 1015.9
20260510121016 72 135 8.0 14.0 0.00 0.13 0.13 61 1015.9
20260510120516 73 135 9.0 14.0 0.00 0.13 0.13 58 1015.9
20260510120016 72 135 8.0 14.0 0.00 0.13 0.13 57 1015.8
20260510115516 72 135 8.0 14.0 0.00 0.13 0.13 57 1015.9
20260510115016 71 135 7.0 13.0 0.00 0.13 0.13 59 1015.8
20260510114516 71 135 9.0 16.0 0.00 0.13 0.13 62 1015.8
20260510114036 71 135 10.0 18.0 0.00 0.13 0.13 61 1016.0
20260510113516 71 135 10.0 18.0 0.00 0.13 0.13 59 1015.9
20260510113016 71 135 10.0 20.0 0.00 0.13 0.13 58 1015.9
20260510112516 71 135 10.0 18.0 0.00 0.13 0.13 60 1015.8
20260510112016 70 135 12.0 21.0 0.00 0.13 0.13 60 1015.9
20260510111516 70 135 12.0 19.0 0.00 0.13 0.13 58 1016.1
20260510111016 69 135 11.0 17.0 0.00 0.13 0.13 62 1016.2
20260510110518 71 135 9.0 15.0 0.00 0.13 0.13 62 1016.2
20260510110018 71 158 11.0 19.0 0.00 0.13 0.13 57 1016.2
20260510105518 70 135 11.0 16.0 0.00 0.13 0.13 58 1016.2
20260510105018 71 135 11.0 20.0 0.00 0.13 0.13 57 1016.1
20260510104518 71 135 11.0 21.0 0.00 0.13 0.13 56 1016.1
20260510104018 71 135 13.0 24.0 0.00 0.13 0.13 55 1016.0
20260510103518 72 135 10.0 20.0 0.00 0.13 0.13 54 1016.0
20260510103018 72 135 10.0 20.0 0.00 0.13 0.13 52 1016.0
20260510102518 72 158 13.0 21.0 0.00 0.13 0.13 53 1016.0
20260510102018 72 135 14.0 24.0 0.00 0.13 0.13 53 1015.9
20260510101518 72 135 11.0 21.0 0.00 0.13 0.13 53 1015.9
20260510101018 71 158 13.0 26.0 0.00 0.13 0.13 54 1015.9
20260510100518 71 135 13.0 24.0 0.00 0.13 0.13 56 1016.1
20260510100018 71 135 11.0 20.0 0.00 0.13 0.13 57 1015.9
20260510095518 71 135 14.0 24.0 0.00 0.13 0.13 57 1015.9
20260510095018 71 135 13.0 21.0 0.00 0.13 0.13 57 1015.9
20260510094518 71 135 11.0 25.0 0.00 0.13 0.13 56 1015.8
20260510094018 70 135 16.0 25.0 0.00 0.13 0.13 55 1015.8
20260510093518 70 158 15.0 25.0 0.00 0.13 0.13 55 1015.9
20260510093018 70 158 12.0 22.0 0.00 0.13 0.13 57 1015.9
20260510092518 70 135 12.0 21.0 0.00 0.13 0.13 55 1016.0
20260510092018 70 135 11.0 19.0 0.00 0.13 0.13 58 1015.9
20260510091518 69 135 12.0 22.0 0.00 0.13 0.13 59 1016.0
20260510091017 69 158 14.0 24.0 0.00 0.13 0.13 60 1015.9
20260510090517 69 158 16.0 26.0 0.00 0.13 0.13 60 1015.9
20260510090018 69 158 16.0 29.0 0.00 0.13 0.13 60 1015.8
20260510085518 69 135 13.0 25.0 0.00 0.13 0.13 61 1015.8
20260510085018 70 135 16.0 26.0 0.00 0.13 0.13 62 1015.7
20260510084517 70 135 13.0 21.0 0.00 0.13 0.13 62 1015.5
20260510084017 70 135 11.0 19.0 0.00 0.13 0.13 64 1015.5
20260510083517 70 135 10.0 20.0 0.00 0.13 0.13 62 1015.6
20260510083017 70 158 11.0 19.0 0.00 0.13 0.13 63 1015.4
20260510082557 70 135 10.0 20.0 0.00 0.13 0.13 64 1015.3
20260510082017 70 158 9.0 17.0 0.00 0.13 0.13 64 1015.2
20260510081538 70 135 8.0 15.0 0.00 0.13 0.13 64 1015.2
20260510081017 69 135 9.0 14.0 0.00 0.13 0.13 67 1015.2
20260510080538 69 135 11.0 19.0 0.00 0.13 0.13 67 1015.0
20260510080018 70 135 8.0 13.0 0.00 0.13 0.13 67 1015.0
20260510075518 70 135 7.0 14.0 0.00 0.13 0.13 63 1015.0
20260510075017 70 135 5.0 12.0 0.00 0.13 0.13 64 1015.1
20260510074517 70 180 5.0 10.0 0.00 0.13 0.13 61 1015.1
20260510074018 70 180 5.0 9.0 0.00 0.13 0.13 63 1015.1
20260510073517 70 180 7.0 15.0 0.00 0.13 0.13 64 1015.1
20260510073017 70 158 9.0 14.0 0.00 0.13 0.13 63 1015.2
20260510072517 70 158 8.0 15.0 0.00 0.13 0.13 67 1015.1
20260510072017 69 135 7.0 16.0 0.00 0.13 0.13 74 1015.1
20260510071517 69 135 7.0 12.0 0.00 0.13 0.13 74 1015.2
20260510071017 69 135 5.0 10.0 0.00 0.13 0.13 74 1015.1
20260510070517 69 113 2.0 5.0 0.00 0.13 0.13 74 1015.0
20260510070017 68 158 3.0 6.0 0.00 0.13 0.13 75 1015.1
20260510065517 68 180 3.0 7.0 0.00 0.13 0.13 76 1015.3
20260510065017 67 180 4.0 6.0 0.00 0.13 0.13 76 1015.3
20260510064517 67 203 4.0 6.0 0.00 0.13 0.13 77 1015.7
20260510064018 66 203 3.0 6.0 0.00 0.13 0.13 78 1015.9
20260510063517 66 203 3.0 5.0 0.00 0.13 0.13 78 1015.9
20260510063017 66 225 5.0 7.0 0.00 0.13 0.13 78 1016.3
20260510062517 65 248 3.0 6.0 0.00 0.13 0.13 80 1016.4
20260510062017 65 248 7.0 14.0 0.00 0.13 0.13 81 1016.2
20260510061517 65 225 3.0 7.0 0.00 0.13 0.13 81 1016.4
20260510061017 65 248 7.0 13.0 0.00 0.13 0.13 81 1016.5
20260510060517 65 180 5.0 10.0 0.00 0.13 0.13 82 1016.5
20260510060017 64 158 4.0 9.0 0.00 0.13 0.13 83 1016.7
20260510055517 64 113 7.0 12.0 0.00 0.13 0.13 84 1016.7
20260510055017 64 113 6.0 11.0 0.00 0.13 0.13 84 1016.9
20260510054517 64 113 5.0 11.0 0.00 0.13 0.13 83 1016.7
20260510054057 65 113 7.0 11.0 0.00 0.13 0.13 81 1016.4
20260510053517 66 113 6.0 11.0 0.02 0.13 0.13 80 1016.3
20260510053017 66 293 2.0 7.0 0.02 0.13 0.13 78 1015.8
20260510052517 66 293 1.0 4.0 0.02 0.13 0.13 78 1015.7
20260510052017 66 248 1.0 2.0 0.03 0.13 0.13 79 1015.7
20260510051517 66 293 1.0 2.0 0.04 0.13 0.13 79 1015.7
20260510051017 66 270 3.0 6.0 0.04 0.13 0.13 78 1015.7
20260510050017 66 270 3.0 5.0 0.04 0.13 0.13 81 1015.3
20260510045517 65 315 2.0 3.0 0.04 0.13 0.13 83 1014.7
20260510045017 65 293 2.0 5.0 0.04 0.13 0.13 85 1014.7
20260510044517 65 270 3.0 10.0 0.04 0.13 0.13 86 1014.8
20260510044017 64 270 4.0 9.0 0.04 0.13 0.13 86 1015.0
20260510043517 64 270 3.0 5.0 0.04 0.13 0.13 86 1015.1
20260510043017 64 270 2.0 5.0 0.02 0.11 0.11 86 1015.3
20260510042517 64 293 1.0 3.0 0.02 0.11 0.11 85 1015.7
20260510042037 64 293 2.0 3.0 0.02 0.11 0.11 85 1015.6
20260510041517 64 315 2.0 3.0 0.01 0.10 0.10 84 1016.2
20260510041017 64 270 2.0 4.0 0.01 0.09 0.09 84 1017.1
20260510040517 64 270 3.0 5.0 0.01 0.09 0.09 84 1017.3
20260510040018 64 248 2.0 5.0 0.01 0.09 0.09 83 1016.9
20260510035517 64 293 3.0 5.0 0.01 0.09 0.09 83 1016.7
20260510035017 64 293 2.0 4.0 0.01 0.09 0.09 82 1017.2
20260510034517 64 293 3.0 6.0 0.01 0.09 0.09 82 1017.1
20260510034037 63 270 4.0 7.0 0.01 0.09 0.09 83 1017.3
20260510033537 63 293 2.0 5.0 0.01 0.09 0.09 83 1017.6
20260510033037 63 293 3.0 5.0 0.01 0.09 0.09 83 1017.4
20260510032517 62 293 4.0 5.0 0.02 0.09 0.09 83 1017.3
20260510032017 62 293 3.0 5.0 0.03 0.09 0.09 85 1017.3
20260510031537 63 270 3.0 4.0 0.03 0.09 0.09 85 1017.4
20260510031057 62 315 1.0 2.0 0.02 0.08 0.08 85 1017.4
20260510030517 62 338 2.0 4.0 0.02 0.08 0.08 85 1017.7
20260510030017 62 315 4.0 6.0 0.02 0.08 0.08 84 1017.8
20260510025516 62 293 4.0 5.0 0.03 0.08 0.08 84 1018.0
20260510025017 63 270 3.0 4.0 0.03 0.08 0.08 85 1018.1
20260510024537 63 293 2.0 3.0 0.03 0.08 0.08 83 1017.9
20260510024016 63 68 2.0 3.0 0.03 0.08 0.08 83 1018.0
20260510023516 63 338 2.0 3.0 0.03 0.08 0.08 83 1018.1
20260510023016 63 315 3.0 4.0 0.03 0.08 0.08 82 1018.1
20260510022516 63 68 3.0 4.0 0.02 0.07 0.07 81 1018.2
20260510022037 64 0 4.0 6.0 0.01 0.06 0.06 80 1018.8
20260510021617 64 23 5.0 7.0 0.01 0.06 0.06 79 1018.9
20260510021016 65 68 2.0 4.0 0.01 0.06 0.06 77 1019.0
20260510020517 65 113 2.0 4.0 0.01 0.06 0.06 76 1018.6
20260510020017 66 225 1.0 4.0 0.01 0.06 0.06 76 1018.5
20260510015516 66 270 1.0 3.0 0.00 0.05 0.05 75 1018.4
20260510015036 66 113 3.0 7.0 0.00 0.05 0.05 75 1018.2
20260510014516 65 113 5.0 13.0 0.04 0.05 0.05 76 1018.2
20260510014037 65 203 1.0 4.0 0.05 0.05 0.05 77 1018.0
20260510013517 65 270 2.0 5.0 0.05 0.05 0.05 78 1017.9
20260510013016 65 90 2.0 4.0 0.05 0.05 0.05 75 1017.5
20260510012517 66 90 2.0 4.0 0.05 0.05 0.05 75 1017.5
20260510012036 66 158 2.0 4.0 0.05 0.05 0.05 74 1017.5
20260510011516 66 158 2.0 4.0 0.05 0.05 0.05 74 1017.6
20260510011016 66 158 3.0 6.0 0.05 0.05 0.05 73 1017.1
20260510010517 66 158 3.0 6.0 0.05 0.05 0.05 73 1017.1
20260510010016 66 180 6.0 11.0 0.05 0.05 0.05 72 1017.3
20260510005516 67 135 3.0 7.0 0.05 0.05 0.05 72 1016.5
20260510005016 68 180 8.0 13.0 0.05 0.05 0.05 69 1017.0
20260510004517 69 180 12.0 21.0 0.01 0.01 0.01 67 1017.2
20260510004017 67 203 10.0 23.0 0.00 0.00 0.00 68 1018.2
20260510003516 67 180 8.0 20.0 0.00 0.00 0.00 70 1016.5
20260510003016 67 180 10.0 18.0 0.00 0.00 0.00 70 1016.2
20260510002516 67 225 10.0 21.0 0.00 0.00 0.00 70 1016.0
20260510002017 67 203 13.0 21.0 0.00 0.00 0.00 70 1015.9
20260510001516 66 203 10.0 19.0 0.00 0.00 0.00 70 1015.8
20260510001016 66 180 7.0 16.0 0.00 0.00 0.00 71 1015.7
20260510000516 66 158 7.0 17.0 0.00 0.00 0.00 71 1015.6
20260510000016 66 180 6.0 16.0 0.00 0.00 0.00 71 1015.6
20260509235516 66 203 8.0 14.0 0.00 0.00 0.00 71 1015.7
20260509235016 66 203 9.0 16.0 0.00 0.00 0.00 71 1015.7
20260509234516 66 180 9.0 20.0 0.00 0.00 0.00 72 1015.7
20260509234016 66 180 7.0 14.0 0.00 0.00 0.00 72 1015.7
20260509233516 65 225 7.0 14.0 0.00 0.00 0.00 72 1015.7
20260509233016 65 180 9.0 14.0 0.00 0.00 0.00 73 1015.8
20260509232536 65 203 8.0 14.0 0.00 0.00 0.00 73 1016.1
20260509232016 65 180 6.0 14.0 0.00 0.00 0.00 73 1016.3
20260509231536 65 180 10.0 18.0 0.00 0.00 0.00 74 1016.3
20260509231016 65 180 8.0 17.0 0.00 0.00 0.00 74 1016.4
20260509230557 65 180 5.0 11.0 0.00 0.00 0.00 75 1016.5
20260509230016 65 180 6.0 15.0 0.00 0.00 0.00 75 1016.5
20260509225516 65 180 7.0 15.0 0.00 0.00 0.00 75 1016.7
20260509225036 65 180 10.0 17.0 0.00 0.00 0.00 75 1016.7
20260509224516 64 158 10.0 18.0 0.00 0.00 0.00 74 1016.8
20260509224016 64 158 8.0 15.0 0.00 0.00 0.00 74 1016.9
20260509223516 64 180 8.0 14.0 0.00 0.00 0.00 74 1016.8
20260509223016 64 158 9.0 16.0 0.00 0.00 0.00 74 1016.8
20260509222516 64 135 9.0 17.0 0.00 0.00 0.00 74 1016.9
20260509222036 64 158 8.0 14.0 0.00 0.00 0.00 73 1016.9
20260509221516 65 158 8.0 17.0 0.00 0.00 0.00 73 1017.0
20260509221016 64 158 10.0 18.0 0.00 0.00 0.00 73 1017.0
20260509220516 64 180 9.0 17.0 0.00 0.00 0.00 74 1017.1
20260509220016 64 180 10.0 16.0 0.00 0.00 0.00 75 1017.0
20260509215518 64 158 11.0 17.0 0.00 0.00 0.00 75 1017.1
20260509215018 64 180 11.0 24.0 0.00 0.00 0.00 76 1017.2
20260509214518 64 158 11.0 17.0 0.00 0.00 0.00 75 1017.2
20260509214018 64 180 9.0 17.0 0.00 0.00 0.00 76 1017.2
20260509213518 64 158 9.0 16.0 0.00 0.00 0.00 77 1017.2
20260509213017 64 180 6.0 12.0 0.00 0.00 0.00 79 1017.2
20260509212518 64 135 8.0 14.0 0.00 0.00 0.00 79 1017.2
20260509212017 64 158 7.0 14.0 0.00 0.00 0.00 79 1017.3
20260509211558 64 158 6.0 13.0 0.00 0.00 0.00 79 1017.3
20260509211038 64 180 9.0 14.0 0.00 0.00 0.00 78 1017.2
20260509210518 64 158 7.0 13.0 0.00 0.00 0.00 79 1017.3
20260509210017 64 158 7.0 14.0 0.00 0.00 0.00 79 1017.4
20260509205518 64 158 6.0 11.0 0.00 0.00 0.00 78 1017.3
20260509205018 64 158 8.0 16.0 0.00 0.00 0.00 78 1017.4
20260509204518 64 180 5.0 10.0 0.00 0.00 0.00 77 1017.4
20260509204018 64 158 6.0 14.0 0.00 0.00 0.00 77 1017.5
20260509203517 64 158 5.0 10.0 0.00 0.00 0.00 78 1017.6
20260509203018 64 158 6.0 10.0 0.00 0.00 0.00 80 1017.5
20260509202517 64 135 7.0 14.0 0.00 0.00 0.00 79 1017.4
20260509202038 64 158 6.0 13.0 0.00 0.00 0.00 79 1017.6
20260509201537 65 158 8.0 14.0 0.00 0.00 0.00 78 1017.6
20260509201018 65 158 5.0 11.0 0.00 0.00 0.00 76 1017.6
20260509200538 65 158 6.0 12.0 0.00 0.00 0.00 75 1017.6
20260509200038 65 135 6.0 11.0 0.00 0.00 0.00 75 1017.7
20260509195517 65 180 6.0 13.0 0.00 0.00 0.00 75 1017.8
20260509195018 65 135 7.0 14.0 0.00 0.00 0.00 76 1017.9
20260509194517 64 180 7.0 14.0 0.00 0.00 0.00 77 1017.9
20260509194038 64 158 7.0 13.0 0.00 0.00 0.00 78 1017.9
20260509193517 64 158 7.0 13.0 0.00 0.00 0.00 78 1017.9
20260509193017 64 158 5.0 13.0 0.00 0.00 0.00 79 1017.9
20260509192517 64 158 7.0 12.0 0.00 0.00 0.00 79 1017.9
20260509192018 64 158 5.0 12.0 0.00 0.00 0.00 80 1017.7
20260509191537 64 158 7.0 14.0 0.00 0.00 0.00 80 1018.0
20260509191017 64 158 7.0 13.0 0.00 0.00 0.00 80 1018.1
20260509190537 64 158 4.0 7.0 0.00 0.00 0.00 81 1017.9
20260509190037 64 158 4.0 7.0 0.00 0.00 0.00 82 1017.8
20260509185537 64 158 6.0 12.0 0.00 0.00 0.00 82 1017.9
20260509185017 64 180 4.0 9.0 0.00 0.00 0.00 82 1017.9
20260509184517 64 158 5.0 12.0 0.00 0.00 0.00 83 1017.8
20260509184037 64 135 6.0 13.0 0.00 0.00 0.00 83 1017.5
20260509183517 64 158 5.0 10.0 0.00 0.00 0.00 83 1017.6
20260509183017 64 158 7.0 15.0 0.00 0.00 0.00 83 1017.5
20260509182517 64 158 6.0 14.0 0.00 0.00 0.00 84 1017.6
20260509182017 64 135 5.0 13.0 0.00 0.00 0.00 84 1017.5
20260509181537 64 135 7.0 13.0 0.00 0.00 0.00 83 1017.3
20260509181037 64 135 6.0 13.0 0.00 0.00 0.00 83 1017.4
20260509180517 64 158 5.0 12.0 0.00 0.00 0.00 82 1017.5
20260509180017 64 158 6.0 13.0 0.00 0.00 0.00 82 1017.5
20260509175517 65 158 6.0 12.0 0.00 0.00 0.00 81 1017.6
20260509175017 65 158 6.0 11.0 0.00 0.00 0.00 81 1017.6
20260509174517 64 158 7.0 13.0 0.00 0.00 0.00 81 1017.4
20260509174037 64 158 7.0 13.0 0.00 0.00 0.00 82 1017.4
20260509173517 65 158 7.0 13.0 0.00 0.00 0.00 82 1017.4
20260509173018 65 135 7.0 14.0 0.00 0.00 0.00 82 1017.3
20260509172517 65 135 5.0 11.0 0.00 0.00 0.00 81 1017.2
20260509172037 65 135 6.0 12.0 0.00 0.00 0.00 81 1017.0
20260509171537 65 135 7.0 12.0 0.00 0.00 0.00 81 1017.0
20260509171017 65 135 7.0 12.0 0.00 0.00 0.00 80 1017.0
20260509170517 65 135 5.0 11.0 0.00 0.00 0.00 80 1017.0
20260509170017 65 135 6.0 12.0 0.00 0.00 0.00 80 1017.0
20260509165517 65 158 5.0 10.0 0.00 0.00 0.00 80 1016.9
20260509165037 65 135 7.0 13.0 0.00 0.00 0.00 80 1017.0
20260509164517 65 135 6.0 12.0 0.00 0.00 0.00 81 1016.9
20260509164017 65 135 7.0 12.0 0.00 0.00 0.00 81 1016.9
20260509163517 65 135 7.0 14.0 0.00 0.00 0.00 81 1016.8
20260509163017 65 135 8.0 14.0 0.00 0.00 0.00 81 1016.7
20260509162517 65 135 9.0 18.0 0.00 0.00 0.00 81 1016.8
20260509162017 65 135 10.0 16.0 0.00 0.00 0.00 81 1016.8
20260509161517 66 113 9.0 14.0 0.00 0.00 0.00 80 1016.9
20260509161017 66 135 9.0 16.0 0.00 0.00 0.00 81 1016.9
20260509160517 66 135 9.0 14.0 0.00 0.00 0.00 80 1016.9
20260509160017 66 135 9.0 15.0 0.00 0.00 0.00 80 1017.0
20260509155517 66 135 11.0 17.0 0.00 0.00 0.00 80 1017.0
20260509155037 66 135 8.0 16.0 0.00 0.00 0.00 80 1017.1
20260509154517 66 135 8.0 14.0 0.00 0.00 0.00 80 1017.2
20260509154017 66 135 9.0 16.0 0.00 0.00 0.00 80 1017.2
20260509153557 66 135 8.0 14.0 0.00 0.00 0.00 79 1017.2
20260509153017 66 158 9.0 16.0 0.00 0.00 0.00 79 1017.2
20260509152517 66 135 7.0 12.0 0.00 0.00 0.00 79 1017.1
20260509152017 66 158 8.0 13.0 0.00 0.00 0.00 79 1017.0
20260509151517 66 135 8.0 14.0 0.00 0.00 0.00 79 1017.0
20260509151017 66 135 9.0 16.0 0.00 0.00 0.00 79 1017.0
20260509150517 66 135 9.0 14.0 0.00 0.00 0.00 79 1017.0
20260509150016 67 135 8.0 13.0 0.00 0.00 0.00 79 1017.1
20260509145517 66 135 8.0 15.0 0.00 0.00 0.00 79 1017.0
20260509145017 66 135 9.0 17.0 0.00 0.00 0.00 79 1017.0
20260509144517 66 135 9.0 15.0 0.00 0.00 0.00 79 1017.0
20260509144016 67 135 9.0 15.0 0.00 0.00 0.00 79 1017.0